Location: Observatory
(52.1446°N, 0.4624°W)
Time: 05:19:54
(UTC+01:00)

ISS - Pass Details

Date: 23 July 2021
Orbit: 419 x 421 km, 51.6° (Epoch: 03 August)

Event Time Altitude Azimuth Distance (km) Brightness Sun altitude
Rises 22:01:57 0° 273° (W) 2,373 0.9 -7.3°
Reaches altitude 10° 22:04:03 10° 273° (W) 1,508 -0.2 -7.6°
Maximum altitude 22:07:26 81° 187° (S) 431 -3.8 -7.9°
Drops below altitude 10° 22:10:49 10° 99° (E) 1,505 -1.4 -8.3°
Enters shadow 22:11:35 - 98° (E) 1,817 -1.0 -8.3°
